Time,TemperatureF,DewpointF,PressureIn,WindDirection,WindDirectionDegrees,WindSpeedMPH,WindSpeedGustMPH,Humidity,HourlyPrecipIn,Conditions,Clouds,dailyrainin,SoftwareType,DateUTC
2013-07-30 00:03:00,63.0,62.0,-100.00,South,180,8.0,14.0,97,-99.99,,,-99.99,,2013-07-30 05:03:00,
2013-07-30 00:12:00,63.0,62.0,-100.00,South,180,8.0,14.0,97,-99.99,,,-99.99,,2013-07-30 05:12:00,
2013-07-30 00:23:00,63.0,62.0,-100.00,South,180,8.0,14.0,97,-99.99,,,-99.99,,2013-07-30 05:23:00,
2013-07-30 00:45:00,63.0,62.0,-100.00,South,185,9.0,16.0,97,-99.99,,,-99.99,,2013-07-30 05:45:00,
2013-07-30 00:52:00,63.0,62.0,-100.00,South,185,9.0,16.0,97,-99.99,,,-99.99,,2013-07-30 05:52:00,
2013-07-30 01:03:00,63.0,62.0,-100.00,South,180,9.0,15.0,97,-99.99,,,-99.99,,2013-07-30 06:03:00,
2013-07-30 01:13:00,63.0,62.0,-100.00,South,180,9.0,15.0,97,-99.99,,,-99.99,,2013-07-30 06:13:00,
2013-07-30 01:22:00,63.0,62.0,-100.00,South,180,9.0,15.0,97,-99.99,,,-99.99,,2013-07-30 06:22:00,
2013-07-30 01:33:00,63.0,62.0,-100.00,South,170,7.0,14.0,97,-99.99,,,-99.99,,2013-07-30 06:33:00,
2013-07-30 01:43:00,63.0,62.0,-100.00,South,170,7.0,14.0,97,-99.99,,,-99.99,,2013-07-30 06:43:00,
2013-07-30 01:53:00,63.0,62.0,-100.00,South,170,7.0,14.0,97,-99.99,,,-99.99,,2013-07-30 06:53:00,
2013-07-30 02:02:00,63.0,62.0,-100.00,South,180,9.0,12.0,97,-99.99,,,-99.99,,2013-07-30 07:02:00,
2013-07-30 02:13:00,63.0,62.0,-100.00,South,180,9.0,12.0,97,-99.99,,,-99.99,,2013-07-30 07:13:00,
2013-07-30 02:23:00,63.0,62.0,-100.00,South,180,9.0,12.0,97,-99.99,,,-99.99,,2013-07-30 07:23:00,
2013-07-30 02:33:00,63.0,62.0,-100.00,South,180,9.0,12.0,97,-99.99,,,-99.99,,2013-07-30 07:33:00,
2013-07-30 03:03:00,63.0,62.0,-100.00,South,185,9.0,14.0,99,-99.99,,,-99.99,,2013-07-30 08:03:00,
2013-07-30 03:13:00,63.0,62.0,-100.00,South,185,9.0,14.0,99,-99.99,,,-99.99,,2013-07-30 08:13:00,
2013-07-30 03:23:00,63.0,62.0,-100.00,South,185,9.0,14.0,99,-99.99,,,-99.99,,2013-07-30 08:23:00,
2013-07-30 03:33:00,62.0,62.0,-100.00,South,190,9.0,15.0,99,-99.99,,,-99.99,,2013-07-30 08:33:00,
2013-07-30 03:43:00,62.0,62.0,-100.00,South,190,9.0,15.0,99,-99.99,,,-99.99,,2013-07-30 08:43:00,
2013-07-30 03:53:00,62.0,62.0,-100.00,South,190,9.0,15.0,99,-99.99,,,-99.99,,2013-07-30 08:53:00,
2013-07-30 04:03:00,62.0,62.0,-100.00,SSW,195,9.0,16.0,99,-99.99,,,-99.99,,2013-07-30 09:03:00,
2013-07-30 04:13:00,62.0,62.0,-100.00,SSW,195,9.0,16.0,99,-99.99,,,-99.99,,2013-07-30 09:13:00,
2013-07-30 04:23:00,62.0,62.0,-100.00,SSW,195,9.0,16.0,99,-99.99,,,-99.99,,2013-07-30 09:23:00,
2013-07-30 04:43:00,62.0,61.0,-100.00,SSW,195,7.0,12.0,99,-99.99,,,-99.99,,2013-07-30 09:43:00,
2013-07-30 04:53:00,62.0,61.0,-100.00,SSW,195,7.0,12.0,99,-99.99,,,-99.99,,2013-07-30 09:53:00,
2013-07-30 05:03:00,62.0,61.0,-100.00,SSW,205,6.0,11.0,99,-99.99,,,-99.99,,2013-07-30 10:03:00,
2013-07-30 05:12:00,62.0,61.0,-100.00,SSW,205,6.0,11.0,99,-99.99,,,-99.99,,2013-07-30 10:12:00,
2013-07-30 05:22:00,62.0,61.0,-100.00,SSW,205,6.0,11.0,99,-99.99,,,-99.99,,2013-07-30 10:22:00,
2013-07-30 05:32:00,62.0,61.0,-100.00,SW,215,6.0,10.0,99,-99.99,,,-99.99,,2013-07-30 10:32:00,
2013-07-30 05:44:00,62.0,61.0,-100.00,SW,215,6.0,10.0,99,-99.99,,,-99.99,,2013-07-30 10:44:00,
2013-07-30 05:52:00,62.0,61.0,-100.00,SW,215,6.0,10.0,99,-99.99,,,-99.99,,2013-07-30 10:52:00,
2013-07-30 06:02:00,61.0,61.0,-100.00,SW,225,6.0,8.0,99,-99.99,,,-99.99,,2013-07-30 11:02:00,
2013-07-30 06:11:00,61.0,61.0,-100.00,SW,225,6.0,8.0,99,-99.99,,,-99.99,,2013-07-30 11:11:00,
2013-07-30 06:22:00,61.0,61.0,-100.00,SW,225,6.0,8.0,99,-99.99,,,-99.99,,2013-07-30 11:22:00,
2013-07-30 06:43:00,60.0,60.0,-100.00,SW,235,4.0,6.0,99,-99.99,,,-99.99,,2013-07-30 11:43:00,
2013-07-30 06:53:00,60.0,60.0,-100.00,SW,235,4.0,6.0,99,-99.99,,,-99.99,,2013-07-30 11:53:00,
2013-07-30 07:12:00,60.0,60.0,-100.00,SW,235,5.0,6.0,99,-99.99,,,-99.99,,2013-07-30 12:12:00,
2013-07-30 07:22:00,60.0,60.0,-100.00,SW,235,5.0,6.0,99,-99.99,,,-99.99,,2013-07-30 12:22:00,
2013-07-30 07:42:00,61.0,61.0,-100.00,WSW,250,5.0,7.0,99,-99.99,,,-99.99,,2013-07-30 12:42:00,
2013-07-30 07:53:00,61.0,61.0,-100.00,WSW,250,5.0,7.0,99,-99.99,,,-99.99,,2013-07-30 12:53:00,
2013-07-30 08:02:00,62.0,61.0,-100.00,NW,305,6.0,10.0,99,-99.99,,,-99.99,,2013-07-30 13:02:00,
2013-07-30 08:12:00,62.0,61.0,-100.00,NW,305,6.0,10.0,99,-99.99,,,-99.99,,2013-07-30 13:12:00,
2013-07-30 08:22:00,62.0,61.0,-100.00,NW,305,6.0,10.0,99,-99.99,,,-99.99,,2013-07-30 13:22:00,
2013-07-30 08:43:00,62.0,62.0,-100.00,West,270,4.0,7.0,99,-99.99,,,-99.99,,2013-07-30 13:43:00,
2013-07-30 08:52:00,62.0,62.0,-100.00,West,270,4.0,7.0,99,-99.99,,,-99.99,,2013-07-30 13:52:00,
2013-07-30 09:02:00,62.0,62.0,-100.00,NW,310,6.0,11.0,99,-99.99,,,-99.99,,2013-07-30 14:02:00,
2013-07-30 09:12:00,62.0,62.0,-100.00,NW,310,6.0,11.0,99,-99.99,,,-99.99,,2013-07-30 14:12:00,
2013-07-30 09:22:00,62.0,62.0,-100.00,NW,310,6.0,11.0,99,-99.99,,,-99.99,,2013-07-30 14:22:00,
2013-07-30 09:43:00,63.0,62.0,-100.00,NW,325,7.0,10.0,94,-99.99,,,-99.99,,2013-07-30 14:43:00,
2013-07-30 09:53:00,63.0,62.0,-100.00,NW,325,7.0,10.0,94,-99.99,,,-99.99,,2013-07-30 14:53:00,
2013-07-30 10:02:00,66.0,63.0,-100.00,NNW,345,4.0,7.0,89,-99.99,,,-99.99,,2013-07-30 15:02:00,
2013-07-30 10:12:00,66.0,63.0,-100.00,NNW,345,4.0,7.0,89,-99.99,,,-99.99,,2013-07-30 15:12:00,
2013-07-30 10:23:00,66.0,63.0,-100.00,NNW,345,4.0,7.0,89,-99.99,,,-99.99,,2013-07-30 15:23:00,
2013-07-30 10:43:00,67.0,63.0,-100.00,NW,325,2.0,6.0,86,-99.99,,,-99.99,,2013-07-30 15:43:00,
2013-07-30 10:53:00,67.0,63.0,-100.00,NW,325,2.0,6.0,86,-99.99,,,-99.99,,2013-07-30 15:53:00,
2013-07-30 11:02:00,68.0,62.0,-100.00,SW,230,4.0,7.0,83,-99.99,,,-99.99,,2013-07-30 16:02:00,
2013-07-30 11:12:00,68.0,62.0,-100.00,SW,230,4.0,7.0,83,-99.99,,,-99.99,,2013-07-30 16:12:00,
2013-07-30 11:22:00,68.0,62.0,-100.00,SW,230,4.0,7.0,83,-99.99,,,-99.99,,2013-07-30 16:22:00,
2013-07-30 11:44:00,71.0,62.0,-100.00,SW,225,2.0,7.0,74,-99.99,,,-99.99,,2013-07-30 16:44:00,
2013-07-30 11:52:00,71.0,62.0,-100.00,SW,225,2.0,7.0,74,-99.99,,,-99.99,,2013-07-30 16:52:00,
2013-07-30 12:02:00,72.0,62.0,-100.00,WSW,255,6.0,8.0,71,-99.99,,,-99.99,,2013-07-30 17:02:00,
2013-07-30 12:12:00,72.0,62.0,-100.00,WSW,255,6.0,8.0,71,-99.99,,,-99.99,,2013-07-30 17:12:00,
2013-07-30 12:22:00,72.0,62.0,-100.00,WSW,255,6.0,8.0,71,-99.99,,,-99.99,,2013-07-30 17:22:00,
2013-07-30 12:43:00,74.0,63.0,-100.00,NNW,335,1.0,8.0,68,-99.99,,,-99.99,,2013-07-30 17:43:00,
2013-07-30 12:53:00,74.0,63.0,-100.00,NNW,335,1.0,8.0,68,-99.99,,,-99.99,,2013-07-30 17:53:00,
2013-07-30 13:03:00,73.0,62.0,-100.00,West,260,5.0,8.0,68,-99.99,,,-99.99,,2013-07-30 18:03:00,
2013-07-30 13:12:00,73.0,62.0,-100.00,West,260,5.0,8.0,68,-99.99,,,-99.99,,2013-07-30 18:12:00,
2013-07-30 13:23:00,73.0,62.0,-100.00,West,260,5.0,8.0,68,-99.99,,,-99.99,,2013-07-30 18:23:00,
2013-07-30 13:43:00,73.0,61.0,-100.00,West,265,7.0,10.0,66,-99.99,,,-99.99,,2013-07-30 18:43:00,
2013-07-30 13:52:00,73.0,61.0,-100.00,West,265,7.0,10.0,66,-99.99,,,-99.99,,2013-07-30 18:52:00,
2013-07-30 14:02:00,74.0,62.0,-100.00,NW,315,9.0,12.0,65,-99.99,,,-99.99,,2013-07-30 19:02:00,
2013-07-30 14:12:00,74.0,62.0,-100.00,NW,315,9.0,12.0,65,-99.99,,,-99.99,,2013-07-30 19:12:00,
2013-07-30 14:22:00,74.0,62.0,-100.00,NW,315,9.0,12.0,65,-99.99,,,-99.99,,2013-07-30 19:22:00,
2013-07-30 14:44:00,74.0,61.0,-100.00,West,275,7.0,12.0,66,-99.99,,,-99.99,,2013-07-30 19:44:00,
2013-07-30 14:52:00,74.0,61.0,-100.00,West,275,7.0,12.0,66,-99.99,,,-99.99,,2013-07-30 19:52:00,
2013-07-30 15:02:00,74.0,60.0,-100.00,WNW,285,7.0,14.0,62,-99.99,,,-99.99,,2013-07-30 20:02:00,
2013-07-30 15:12:00,74.0,60.0,-100.00,WNW,285,7.0,14.0,62,-99.99,,,-99.99,,2013-07-30 20:12:00,
2013-07-30 15:22:00,74.0,60.0,-100.00,WNW,285,7.0,14.0,62,-99.99,,,-99.99,,2013-07-30 20:22:00,
2013-07-30 15:33:00,73.0,59.0,-100.00,West,265,7.0,12.0,62,-99.99,,,-99.99,,2013-07-30 20:33:00,
2013-07-30 15:43:00,73.0,59.0,-100.00,West,265,7.0,12.0,62,-99.99,,,-99.99,,2013-07-30 20:43:00,
2013-07-30 15:52:00,73.0,59.0,-100.00,West,265,7.0,12.0,62,-99.99,,,-99.99,,2013-07-30 20:52:00,
2013-07-30 16:02:00,73.0,59.0,-100.00,WNW,285,11.0,19.0,61,-99.99,,,-99.99,,2013-07-30 21:02:00,
2013-07-30 16:12:00,73.0,59.0,-100.00,WNW,285,11.0,19.0,61,-99.99,,,-99.99,,2013-07-30 21:12:00,
2013-07-30 16:22:00,73.0,59.0,-100.00,WNW,285,11.0,19.0,61,-99.99,,,-99.99,,2013-07-30 21:22:00,
2013-07-30 16:42:00,72.0,58.0,-100.00,WNW,290,9.0,13.0,63,-99.99,,,-99.99,,2013-07-30 21:42:00,
2013-07-30 16:53:00,72.0,58.0,-100.00,WNW,290,9.0,13.0,63,-99.99,,,-99.99,,2013-07-30 21:53:00,
2013-07-30 17:02:00,72.0,58.0,-100.00,WNW,290,9.0,13.0,63,-99.99,,,-99.99,,2013-07-30 22:02:00,
2013-07-30 18:02:00,70.0,58.0,-100.00,WNW,290,11.0,15.0,66,-99.99,,,-99.99,,2013-07-30 23:02:00,
2013-07-30 18:12:00,70.0,58.0,-100.00,WNW,290,11.0,15.0,66,-99.99,,,-99.99,,2013-07-30 23:12:00,
2013-07-30 18:22:00,70.0,58.0,-100.00,WNW,290,11.0,15.0,66,-99.99,,,-99.99,,2013-07-30 23:22:00,
2013-07-30 18:42:00,72.0,59.0,-100.00,West,275,7.0,11.0,63,-99.99,,,-99.99,,2013-07-30 23:42:00,
2013-07-30 18:53:00,72.0,59.0,-100.00,West,275,7.0,11.0,63,-99.99,,,-99.99,,2013-07-30 23:53:00,
2013-07-30 19:02:00,72.0,58.0,-100.00,NW,305,9.0,14.0,61,-99.99,,,-99.99,,2013-07-31 00:02:00,
2013-07-30 19:12:00,72.0,58.0,-100.00,NW,305,9.0,14.0,61,-99.99,,,-99.99,,2013-07-31 00:12:00,
2013-07-30 19:22:00,72.0,58.0,-100.00,NW,305,9.0,14.0,61,-99.99,,,-99.99,,2013-07-31 00:22:00,
2013-07-30 19:43:00,73.0,59.0,-100.00,NW,310,5.0,9.0,62,-99.99,,,-99.99,,2013-07-31 00:43:00,
2013-07-30 19:53:00,73.0,59.0,-100.00,NW,310,5.0,9.0,62,-99.99,,,-99.99,,2013-07-31 00:53:00,
2013-07-30 20:02:00,73.0,59.0,-100.00,NW,305,6.0,9.0,62,-99.99,,,-99.99,,2013-07-31 01:02:00,
2013-07-30 20:12:00,73.0,59.0,-100.00,NW,305,6.0,9.0,62,-99.99,,,-99.99,,2013-07-31 01:12:00,
2013-07-30 20:22:00,73.0,59.0,-100.00,NW,305,6.0,9.0,62,-99.99,,,-99.99,,2013-07-31 01:22:00,
2013-07-30 20:32:00,72.0,60.0,-100.00,West,280,4.0,6.0,67,-99.99,,,-99.99,,2013-07-31 01:32:00,
2013-07-30 20:43:00,72.0,60.0,-100.00,West,280,4.0,6.0,67,-99.99,,,-99.99,,2013-07-31 01:43:00,
2013-07-30 20:52:00,72.0,60.0,-100.00,West,280,4.0,6.0,67,-99.99,,,-99.99,,2013-07-31 01:52:00,
2013-07-30 21:02:00,70.0,61.0,-100.00,WSW,245,4.0,7.0,74,-99.99,,,-99.99,,2013-07-31 02:02:00,
2013-07-30 21:12:00,70.0,61.0,-100.00,WSW,245,4.0,7.0,74,-99.99,,,-99.99,,2013-07-31 02:12:00,
2013-07-30 21:22:00,70.0,61.0,-100.00,WSW,245,4.0,7.0,74,-99.99,,,-99.99,,2013-07-31 02:22:00,
2013-07-30 21:43:00,67.0,61.0,-100.00,SW,235,6.0,7.0,81,-99.99,,,-99.99,,2013-07-31 02:43:00,
2013-07-30 21:52:00,67.0,61.0,-100.00,SW,235,6.0,7.0,81,-99.99,,,-99.99,,2013-07-31 02:52:00,
2013-07-30 22:02:00,66.0,62.0,-100.00,SW,225,6.0,7.0,85,-99.99,,,-99.99,,2013-07-31 03:02:00,
2013-07-30 22:12:00,66.0,62.0,-100.00,SW,225,6.0,7.0,85,-99.99,,,-99.99,,2013-07-31 03:12:00,
2013-07-30 22:22:00,66.0,62.0,-100.00,SW,225,6.0,7.0,85,-99.99,,,-99.99,,2013-07-31 03:22:00,
2013-07-30 22:32:00,64.0,61.0,-100.00,WSW,240,7.0,9.0,90,-99.99,,,-99.99,,2013-07-31 03:32:00,
2013-07-30 22:42:00,64.0,61.0,-100.00,WSW,240,7.0,9.0,90,-99.99,,,-99.99,,2013-07-31 03:42:00,
2013-07-30 22:52:00,64.0,61.0,-100.00,WSW,240,7.0,9.0,90,-99.99,,,-99.99,,2013-07-31 03:52:00,
2013-07-30 23:02:00,63.0,61.0,-100.00,WSW,245,6.0,7.0,92,-99.99,,,-99.99,,2013-07-31 04:02:00,
2013-07-30 23:12:00,63.0,61.0,-100.00,WSW,245,6.0,7.0,92,-99.99,,,-99.99,,2013-07-31 04:12:00,
2013-07-30 23:22:00,63.0,61.0,-100.00,WSW,245,6.0,7.0,92,-99.99,,,-99.99,,2013-07-31 04:22:00,
2013-07-30 23:42:00,63.0,61.0,-100.00,WSW,240,6.0,6.0,93,-99.99,,,-99.99,,2013-07-31 04:42:00,
2013-07-30 23:52:00,63.0,61.0,-100.00,WSW,240,6.0,6.0,93,-99.99,,,-99.99,,2013-07-31 04:52:00,